This is the latest recevied weather packets stored in our database for station/object EA4URC-10. If no packets are shown the sender has not sent any weather packets the latest 10 day(s).
| Time | Temp. | Humidity | Pressure | Rain* | Wind** | Luminosity | Snow |
|---|---|---|---|---|---|---|---|
| 1777869209 | 8.33° C | 100% | 1028.3 hPa | - | - | - | - |
| 1777867409 | 8.33° C | 100% | 1028.4 hPa | - | - | - | - |
| 1777865608 | 8.33° C | 100% | 1028.5 hPa | - | - | - | - |
| 1777863808 | 8.33° C | 100% | 1028.6 hPa | - | - | - | - |
| 1777862013 | 8.33° C | 100% | 1028.9 hPa | - | - | - | - |
| 1777860213 | 8.89° C | 100% | 1028.9 hPa | - | - | - | - |
| 1777858412 | 8.33° C | 100% | 1029 hPa | - | - | - | - |
| 1777856612 | 8.33° C | 100% | 1029.1 hPa | - | - | - | - |
| 1777854811 | 8.33° C | 100% | 1029.4 hPa | - | - | - | - |
| 1777853014 | 8.33° C | 100% | 1029.5 hPa | - | - | - | - |
| 1777851210 | 8.89° C | 100% | 1029.6 hPa | - | - | - | - |
| 1777849409 | 8.89° C | 100% | 1029.7 hPa | - | - | - | - |
| 1777847609 | 8.89° C | 100% | 1029.8 hPa | - | - | - | - |
| 1777845808 | 8.89° C | 100% | 1029.8 hPa | - | - | - | - |
| 1777844015 | 8.89° C | 100% | 1030 hPa | - | - | - | - |
| 1777842207 | 8.89° C | 100% | 1029.8 hPa | - | - | - | - |
| 1777840411 | 8.33° C | 100% | 1029.3 hPa | - | - | - | - |
| 1777838611 | 10.56° C | 100% | 1029.3 hPa | - | - | - | - |
| 1777836810 | 11.11° C | 100% | 1028.9 hPa | - | - | - | - |
| 1777835010 | 11.67° C | 100% | 1028.7 hPa | - | - | - | - |
| 1777833209 | 12.22° C | 88% | 1028.5 hPa | - | - | - | - |
| 1777831408 | 13.33° C | 78% | 1028.4 hPa | - | - | - | - |
| 1777829608 | 13.89° C | 71% | 1028.3 hPa | - | - | - | - |
| 1777827807 | 15° C | 67% | 1028.3 hPa | - | - | - | - |
| 1777826007 | 15.56° C | 68% | 1028.3 hPa | - | - | - | - |
* Rain since midnight (hover to see other rain measurements)
** Current wind speed in m/s (hover to see current wind gust speed)